This is the latest recevied weather packets stored in our database for station/object 4S6DRJ-13. If no packets are shown the sender has not sent any weather packets the latest 10 day(s).
| Time | Temp. | Humidity | Pressure | Rain* | Wind** | Luminosity | Snow |
|---|---|---|---|---|---|---|---|
| 1787781673 | 26.67° C | 91% | 1009 hPa | 0 mm | 0.45 m/s, 221° | 0 W/m² | - |
| 1787781613 | 26.67° C | 92% | 1009 hPa | 0 mm | 0 m/s | 0 W/m² | - |
| 1787781551 | 26.67° C | 92% | 1009.1 hPa | 0 mm | 0 m/s | 0 W/m² | - |
| 1787781490 | 26.67° C | 92% | 1009.2 hPa | 0 mm | 0.45 m/s, 224° | 0 W/m² | - |
| 1787781429 | 26.67° C | 92% | 1009.1 hPa | 0 mm | 0.45 m/s, 212° | 0 W/m² | - |
| 1787781368 | 26.67° C | 92% | 1009 hPa | 0 mm | 0.45 m/s, 210° | 0 W/m² | - |
| 1787781308 | 26.67° C | 92% | 1009 hPa | 0 mm | 0 m/s | 0 W/m² | - |
| 1787781246 | 26.67° C | 92% | 1009 hPa | 0 mm | 1.34 m/s, 223° | 0 W/m² | - |
| 1787781185 | 26.11° C | 92% | 1009.1 hPa | 0 mm | 0.89 m/s, 253° | 0 W/m² | - |
| 1787781124 | 26.11° C | 92% | 1009 hPa | 0 mm | 0.45 m/s, 143° | 0 W/m² | - |
| 1787781063 | 26.11° C | 92% | 1009.1 hPa | 0 mm | 1.34 m/s, 228° | 0 W/m² | - |
| 1787781002 | 26.11° C | 93% | 1009 hPa | 0 mm | 0.89 m/s, 198° | 0 W/m² | - |
| 1787780942 | 26.11° C | 93% | 1008.9 hPa | 0 mm | 0.45 m/s, 297° | 0 W/m² | - |
| 1787780880 | 26.11° C | 93% | 1009 hPa | 0 mm | 0.45 m/s, 233° | 0 W/m² | - |
| 1787780819 | 26.11° C | 93% | 1009.1 hPa | 0 mm | 0.45 m/s, 225° | 0 W/m² | - |
| 1787780759 | 26.11° C | 93% | 1009.1 hPa | 0 mm | 0.45 m/s, 211° | 0 W/m² | - |
| 1787780697 | 26.11° C | 93% | 1008.9 hPa | 0 mm | 0.45 m/s, 262° | 0 W/m² | - |
| 1787780637 | 26.11° C | 93% | 1009 hPa | 0 mm | 1.79 m/s, 227° | 0 W/m² | - |
| 1787780576 | 26.11° C | 93% | 1009 hPa | 0 mm | 0.89 m/s, 264° | 0 W/m² | - |
| 1787780514 | 26.11° C | 93% | 1008.9 hPa | 0 mm | 0.45 m/s, 229° | 0 W/m² | - |
| 1787780453 | 26.11° C | 93% | 1009.1 hPa | 0 mm | 1.34 m/s, 238° | 0 W/m² | - |
| 1787780392 | 26.11° C | 93% | 1008.9 hPa | 0 mm | 0.89 m/s, 204° | 0 W/m² | - |
| 1787780331 | 26.11° C | 93% | 1009 hPa | 0 mm | 0.45 m/s, 226° | 0 W/m² | - |
| 1787780270 | 26.11° C | 94% | 1009 hPa | 0 mm | 0.89 m/s, 207° | 0 W/m² | - |
| 1787780209 | 26.11° C | 94% | 1008.9 hPa | 0 mm | 0.89 m/s, 238° | 0 W/m² | - |
* Rain latest hour (hover to see other rain measurements)
** Current wind speed in m/s (hover to see current wind gust speed)